| time (UTC) | temp F | wind direction | speed knots | gust knots | rain 1hr in | rain 24hr in | rain mn in | humidity % | barometer mb |
| 20260506134003 | 55 | 44 | 0.9 | 5.2 | 0.00 | 0.00 | 0.00 | 72 | 1029.7 |
| 20260506133003 | 55 | 42 | 0.0 | 2.6 | 0.00 | 0.00 | 0.00 | 72 | 1029.6 |
| 20260506132024 | 55 | 42 | 0.9 | 2.6 | 0.00 | 0.00 | 0.00 | 73 | 1029.6 |
| 20260506131003 | 55 | 43 | 0.0 | 1.7 | 0.00 | 0.00 | 0.00 | 73 | 1029.6 |
| 20260506130025 | 55 | 43 | 0.0 | 2.6 | 0.00 | 0.00 | 0.00 | 73 | 1029.6 |
| 20260506125004 | 55 | 44 | 0.0 | 2.6 | 0.00 | 0.00 | 0.00 | 73 | 1029.6 |
| 20260506124004 | 56 | 45 | 0.0 | 0.9 | 0.00 | 0.00 | 0.00 | 73 | 1029.5 |
| 20260506123004 | 56 | 11 | 0.0 | 1.7 | 0.00 | 0.00 | 0.00 | 73 | 1029.4 |
| 20260506122003 | 56 | 336 | 0.0 | 0.9 | 0.00 | 0.00 | 0.00 | 73 | 1029.4 |
| 20260506121003 | 56 | 336 | 0.0 | 1.7 | 0.00 | 0.00 | 0.00 | 73 | 1029.3 |
| 20260506120004 | 56 | 336 | 0.9 | 2.6 | 0.00 | 0.00 | 0.00 | 73 | 1029.2 |
| 20260506115003 | 57 | 283 | 0.9 | 2.6 | 0.00 | 0.00 | 0.00 | 73 | 1029.2 |
| 20260506114003 | 57 | 237 | 0.9 | 2.6 | 0.00 | 0.00 | 0.00 | 73 | 1029.1 |
| 20260506113003 | 57 | 210 | 0.9 | 2.6 | 0.00 | 0.00 | 0.00 | 72 | 1029.0 |
| 20260506112025 | 58 | 210 | 0.0 | 0.9 | 0.00 | 0.00 | 0.00 | 71 | 1029.0 |
| 20260506111003 | 58 | 210 | 0.0 | 1.7 | 0.00 | 0.00 | 0.00 | 71 | 1028.9 |
| 20260506110004 | 58 | 210 | 0.9 | 1.7 | 0.00 | 0.00 | 0.00 | 70 | 1028.8 |
| 20260506105003 | 59 | 210 | 0.9 | 1.7 | 0.00 | 0.00 | 0.00 | 69 | 1028.9 |
| 20260506104025 | 60 | 210 | 0.9 | 1.7 | 0.00 | 0.00 | 0.00 | 68 | 1028.8 |
| 20260506103003 | 60 | 210 | 0.0 | 0.9 | 0.00 | 0.00 | 0.00 | 67 | 1028.8 |
| 20260506102024 | 61 | 210 | 0.9 | 1.7 | 0.00 | 0.00 | 0.00 | 67 | 1028.7 |
| 20260506101003 | 61 | 210 | 0.9 | 0.9 | 0.00 | 0.00 | 0.00 | 66 | 1028.6 |
| 20260506100004 | 62 | 210 | 0.0 | 1.7 | 0.00 | 0.00 | 0.00 | 65 | 1028.5 |
| 20260506095025 | 63 | 210 | 0.9 | 1.7 | 0.00 | 0.00 | 0.00 | 64 | 1028.4 |
| 20260506094004 | 63 | 210 | 0.0 | 1.7 | 0.00 | 0.00 | 0.00 | 62 | 1028.4 |
| 20260506093025 | 64 | 210 | 0.0 | 1.7 | 0.00 | 0.00 | 0.00 | 61 | 1028.3 |
| 20260506092004 | 65 | 210 | 0.0 | 2.6 | 0.00 | 0.00 | 0.00 | 60 | 1028.2 |
| 20260506091004 | 65 | 170 | 0.9 | 5.2 | 0.00 | 0.00 | 0.00 | 58 | 1028.1 |
| 20260506090025 | 66 | 180 | 0.9 | 3.5 | 0.00 | 0.00 | 0.00 | 57 | 1028.1 |
| 20260506085004 | 67 | 131 | 0.9 | 3.5 | 0.00 | 0.00 | 0.00 | 57 | 1028.1 |
| 20260506084004 | 67 | 246 | 0.9 | 5.2 | 0.00 | 0.00 | 0.00 | 56 | 1028.0 |
| 20260506083004 | 67 | 192 | 1.7 | 6.1 | 0.00 | 0.00 | 0.00 | 56 | 1028.0 |
| 20260506082025 | 68 | 202 | 2.6 | 5.2 | 0.00 | 0.00 | 0.00 | 55 | 1028.0 |
| 20260506081004 | 68 | 163 | 1.7 | 6.1 | 0.00 | 0.00 | 0.00 | 56 | 1027.9 |
| 20260506073025 | 68 | 123 | 1.7 | 7.8 | 0.00 | 0.00 | 0.00 | 57 | 1027.9 |
| 20260506072004 | 68 | 109 | 1.7 | 7.8 | 0.00 | 0.00 | 0.00 | 58 | 1028.0 |
| 20260506071004 | 68 | 90 | 0.9 | 3.5 | 0.00 | 0.00 | 0.00 | 57 | 1027.9 |
| 20260506062004 | 68 | 146 | 3.5 | 8.7 | 0.00 | 0.00 | 0.00 | 58 | 1028.0 |
| 20260506061024 | 68 | 103 | 2.6 | 6.1 | 0.00 | 0.00 | 0.00 | 59 | 1028.1 |
| 20260506051003 | 67 | 197 | 2.6 | 7.0 | 0.00 | 0.00 | 0.00 | 61 | 1028.3 |
| 20260506045025 | 67 | 121 | 1.7 | 7.8 | 0.00 | 0.00 | 0.00 | 63 | 1028.4 |
| 20260506044025 | 66 | 118 | 2.6 | 8.7 | 0.00 | 0.00 | 0.00 | 62 | 1028.6 |
| 20260506043003 | 66 | 63 | 2.6 | 8.7 | 0.00 | 0.00 | 0.00 | 63 | 1028.8 |
| 20260506042004 | 66 | 77 | 3.5 | 10.4 | 0.00 | 0.00 | 0.00 | 63 | 1029.0 |
| 20260506041004 | 66 | 63 | 1.7 | 7.8 | 0.00 | 0.00 | 0.00 | 65 | 1029.1 |
| 20260506040004 | 65 | 133 | 2.6 | 9.6 | 0.00 | 0.00 | 0.00 | 65 | 1029.2 |
| 20260506035004 | 65 | 91 | 2.6 | 7.8 | 0.00 | 0.00 | 0.00 | 66 | 1029.3 |
| 20260506034004 | 64 | 60 | 2.6 | 10.4 | 0.00 | 0.00 | 0.00 | 67 | 1029.4 |
| 20260506033004 | 64 | 357 | 2.6 | 9.6 | 0.00 | 0.00 | 0.00 | 68 | 1029.6 |
| 20260506032003 | 64 | 120 | 2.6 | 11.3 | 0.00 | 0.00 | 0.00 | 68 | 1029.7 |
| 20260506031003 | 63 | 355 | 2.6 | 6.1 | 0.00 | 0.00 | 0.00 | 69 | 1029.8 |
| 20260506030004 | 63 | 59 | 2.6 | 7.8 | 0.00 | 0.00 | 0.00 | 70 | 1029.9 |
| 20260506025003 | 62 | 93 | 3.5 | 12.2 | 0.00 | 0.00 | 0.00 | 71 | 1029.9 |
| 20260506024003 | 62 | 45 | 2.6 | 7.8 | 0.00 | 0.00 | 0.00 | 73 | 1029.9 |
| 20260506023003 | 61 | 173 | 1.7 | 6.1 | 0.00 | 0.00 | 0.00 | 74 | 1029.9 |
| 20260506022024 | 60 | 325 | 1.7 | 5.2 | 0.00 | 0.00 | 0.00 | 75 | 1030.0 |
| 20260506021003 | 60 | 320 | 1.7 | 7.8 | 0.00 | 0.00 | 0.00 | 76 | 1030.1 |
| 20260506020004 | 59 | 122 | 1.7 | 8.7 | 0.00 | 0.00 | 0.00 | 77 | 1030.1 |
| 20260506015003 | 58 | 131 | 1.7 | 7.0 | 0.00 | 0.00 | 0.00 | 79 | 1030.2 |
| 20260506014003 | 58 | 119 | 1.7 | 7.8 | 0.00 | 0.00 | 0.00 | 80 | 1030.1 |
| 20260506013004 | 57 | 102 | 2.6 | 10.4 | 0.00 | 0.00 | 0.00 | 81 | 1030.2 |
| 20260506012004 | 56 | 93 | 1.7 | 7.8 | 0.00 | 0.00 | 0.00 | 84 | 1030.2 |
| 20260506011003 | 55 | 105 | 1.7 | 7.8 | 0.00 | 0.00 | 0.00 | 85 | 1030.1 |
| 20260506010005 | 54 | 188 | 1.7 | 5.2 | 0.00 | 0.00 | 0.00 | 86 | 1030.2 |
| 20260506005024 | 54 | 212 | 1.7 | 7.0 | 0.00 | 0.00 | 0.00 | 87 | 1030.1 |
| 20260506004003 | 53 | 169 | 1.7 | 4.3 | 0.00 | 0.00 | 0.00 | 87 | 1030.0 |
| 20260506003004 | 52 | 90 | 0.9 | 6.1 | 0.00 | 0.00 | 0.00 | 88 | 1029.8 |
| 20260506002025 | 52 | 191 | 0.9 | 6.1 | 0.00 | 0.00 | 0.00 | 88 | 1029.7 |
| 20260506001004 | 51 | 76 | 0.9 | 3.5 | 0.00 | 0.01 | 0.00 | 88 | 1029.6 |
| 20260506000004 | 50 | 167 | 0.9 | 4.3 | 0.00 | 0.01 | 0.00 | 88 | 1029.5 |
| 20260505235004 | 50 | 209 | 0.9 | 3.5 | 0.00 | 0.01 | 0.00 | 88 | 1029.4 |
| 20260505234004 | 50 | 237 | 0.9 | 4.3 | 0.00 | 0.01 | 0.00 | 88 | 1029.3 |
| 20260505233004 | 50 | 246 | 0.9 | 2.6 | 0.00 | 0.01 | 0.00 | 87 | 1029.2 |
| 20260505232004 | 50 | 354 | 0.9 | 3.5 | 0.00 | 0.01 | 0.00 | 87 | 1029.1 |
| 20260505231004 | 50 | 42 | 0.9 | 2.6 | 0.00 | 0.01 | 0.00 | 87 | 1029.0 |
| 20260505230025 | 50 | 67 | 0.9 | 2.6 | 0.00 | 0.01 | 0.00 | 87 | 1028.9 |
| 20260505225004 | 50 | 3 | 0.9 | 3.5 | 0.00 | 0.01 | 0.00 | 87 | 1028.9 |
| 20260505224004 | 50 | 93 | 0.9 | 4.3 | 0.00 | 0.01 | 0.00 | 86 | 1028.8 |
| 20260505223025 | 50 | 61 | 0.9 | 3.5 | 0.00 | 0.01 | 0.00 | 86 | 1028.7 |
| 20260505222004 | 50 | 82 | 0.9 | 6.1 | 0.00 | 0.01 | 0.00 | 86 | 1028.6 |
| 20260505221025 | 50 | 45 | 0.9 | 3.5 | 0.00 | 0.01 | 0.00 | 86 | 1028.4 |
| 20260505220004 | 50 | 50 | 0.9 | 5.2 | 0.00 | 0.01 | 0.00 | 85 | 1028.3 |
| 20260505215004 | 50 | 352 | 0.9 | 5.2 | 0.00 | 0.01 | 0.00 | 85 | 1028.3 |
| 20260505214004 | 50 | 116 | 0.9 | 7.0 | 0.00 | 0.01 | 0.00 | 85 | 1028.2 |
| 20260505213004 | 51 | 272 | 0.9 | 3.5 | 0.00 | 0.01 | 0.00 | 85 | 1028.2 |
| 20260505212004 | 51 | 88 | 0.9 | 2.6 | 0.00 | 0.01 | 0.00 | 85 | 1028.2 |
| 20260505211004 | 51 | 70 | 0.0 | 2.6 | 0.00 | 0.01 | 0.00 | 85 | 1028.2 |
| 20260505210004 | 51 | 33 | 0.9 | 2.6 | 0.00 | 0.01 | 0.00 | 84 | 1028.1 |
| 20260505205003 | 51 | 41 | 0.9 | 5.2 | 0.00 | 0.01 | 0.00 | 84 | 1028.0 |
| 20260505204003 | 51 | 265 | 0.9 | 2.6 | 0.00 | 0.01 | 0.00 | 84 | 1027.9 |
| 20260505203003 | 51 | 246 | 0.9 | 5.2 | 0.00 | 0.01 | 0.00 | 84 | 1027.9 |
| 20260505202004 | 51 | 344 | 0.9 | 5.2 | 0.00 | 0.01 | 0.00 | 83 | 1027.8 |
| 20260505201003 | 51 | 332 | 0.9 | 1.7 | 0.00 | 0.01 | 0.00 | 83 | 1027.8 |
| 20260505200004 | 52 | 3 | 0.9 | 5.2 | 0.00 | 0.01 | 0.00 | 82 | 1027.8 |
| 20260505195003 | 52 | 323 | 0.9 | 6.1 | 0.00 | 0.01 | 0.00 | 82 | 1027.7 |
| 20260505194003 | 52 | 273 | 0.9 | 3.5 | 0.00 | 0.01 | 0.00 | 82 | 1027.8 |
| 20260505193003 | 52 | 5 | 0.9 | 3.5 | 0.00 | 0.01 | 0.00 | 81 | 1027.8 |
| 20260505192004 | 52 | 174 | 0.9 | 5.2 | 0.00 | 0.01 | 0.00 | 81 | 1027.7 |
| 20260505191004 | 52 | 343 | 0.9 | 3.5 | 0.00 | 0.01 | 0.00 | 80 | 1027.7 |
| 20260505190004 | 52 | 96 | 0.9 | 2.6 | 0.00 | 0.01 | 0.00 | 80 | 1027.6 |
| 20260505185004 | 52 | 124 | 0.9 | 3.5 | 0.00 | 0.01 | 0.00 | 79 | 1027.5 |
| 20260505184004 | 53 | 67 | 0.9 | 6.1 | 0.00 | 0.01 | 0.00 | 79 | 1027.5 |
| 20260505183004 | 53 | 81 | 0.9 | 3.5 | 0.00 | 0.01 | 0.00 | 78 | 1027.5 |
| 20260505182003 | 53 | 52 | 0.9 | 2.6 | 0.00 | 0.01 | 0.00 | 78 | 1027.5 |
| 20260505181024 | 53 | 26 | 0.9 | 3.5 | 0.00 | 0.01 | 0.00 | 78 | 1027.4 |
| 20260505180004 | 53 | 90 | 0.9 | 3.5 | 0.00 | 0.01 | 0.00 | 77 | 1027.4 |
| 20260505175003 | 53 | 135 | 0.9 | 7.0 | 0.00 | 0.01 | 0.00 | 77 | 1027.3 |
| 20260505174003 | 53 | 318 | 0.9 | 3.5 | 0.00 | 0.01 | 0.00 | 77 | 1027.3 |
| 20260505173004 | 53 | 324 | 0.9 | 4.3 | 0.00 | 0.01 | 0.00 | 77 | 1027.3 |
| 20260505172025 | 53 | 340 | 0.9 | 4.3 | 0.00 | 0.01 | 0.00 | 77 | 1027.3 |
| 20260505171003 | 54 | 1 | 0.9 | 3.5 | 0.00 | 0.01 | 0.00 | 77 | 1027.2 |
| 20260505170003 | 54 | 30 | 0.9 | 2.6 | 0.00 | 0.01 | 0.00 | 77 | 1027.1 |
| 20260505165003 | 54 | 28 | 0.9 | 2.6 | 0.00 | 0.01 | 0.00 | 77 | 1027.2 |
| 20260505164004 | 54 | 321 | 1.7 | 4.3 | 0.00 | 0.01 | 0.00 | 77 | 1027.0 |
| 20260505163004 | 54 | 349 | 0.9 | 4.3 | 0.00 | 0.01 | 0.00 | 77 | 1027.0 |
| 20260505162003 | 54 | 277 | 0.9 | 2.6 | 0.00 | 0.01 | 0.00 | 77 | 1027.0 |
| 20260505161004 | 54 | 262 | 0.0 | 2.6 | 0.00 | 0.01 | 0.00 | 77 | 1026.9 |
| 20260505153004 | 54 | 45 | 1.7 | 3.5 | 0.00 | 0.01 | 0.01 | 77 | 1026.9 |
| 20260505152004 | 54 | 38 | 0.9 | 4.3 | 0.00 | 0.01 | 0.01 | 77 | 1026.9 |
| 20260505151004 | 54 | 22 | 0.9 | 3.5 | 0.00 | 0.01 | 0.01 | 77 | 1026.8 |